817  
ASUS43 KDMX 180606  
RWRIA  
 
WEATHER ROUNDUP FOR IOWA  
NATIONAL WEATHER SERVICE DES MOINES IA  
100 AM CDT FRI SEP 18 2020  
 
NOTE: "FAIR" INDICATES FEW OR NO CLOUDS BELOW 12,000 FEET WITH NO  
SIGNIFICANT WEATHER AND/OR S TO VISIBILITY
.  
 
* - THESE STATIONS ARE NOT NWS STATIONS...THUS NOT UNDER NWS  
QUALITY CONTROL. THEY ALSO DO NOT REPORT WEATHER SUCH  
AS PRECIPITATION OR FOG.
 
 
IAZ001>003-012>014-020>022-031>034-043>046-180700-  
NORTHWEST IOWA  
 
CITY SKY/WX TMP DP RH WIND PRES REMARKS
 
CARROLL * CLOUDY 48 45 87 N3 30.29R  
CHEROKEE * CLOUDY 53 40 61 NE6 30.31R  
DENISON * PTCLDY 48 43 81 NE6 30.30R  
LE MARS * MOCLDY 52 41 66 NE6 30.29R  
SHELDON * CLOUDY 52 41 66 E8 30.30R  
SIOUX CITY CLOUDY 55 40 56 E9 30.29R  
6HR MIN TEMP: 55; 6HR MAX TEMP: 65;  
 
SPENCER MOCLDY 51 39 63 NE8 30.33R  
6HR MIN TEMP: 51; 6HR MAX TEMP: 63;  
 
STORM LAKE * CLOUDY 52 39 62 E13 30.28S  

 
 
IAZ055>058-069>071-079>083-090>094-180700-  
SOUTHWEST IOWA  
 
CITY SKY/WX TMP DP RH WIND PRES REMARKS
 
AUDUBON * CLEAR 46 39 76 CALM 30.29S  
CLARINDA * CLOUDY 50 50 100 NE6 30.26R  
COUNCIL BLFS * MOCLDY 54 46 76 NE8 30.25R  
CRESTON * CLEAR 52 50 93 NE7 30.24S  
HARLAN * CLEAR 50 37 62 N6 30.27S  
LAMONI CLEAR 53 44 71 NE5 30.23R  
6HR MIN TEMP: 53; 6HR MAX TEMP: 63;  
 
RED OAK * CLOUDY 50 48 93 CALM 30.25S  
SHENANDOAH * MOCLDY 50 50 100 NE6 30.24R  

 
 
IAZ047>049-059>061-072>074-084-180700-  
CENTRAL IOWA  
 
CITY SKY/WX TMP DP RH WIND PRES REMARKS
 
AMES CLOUDY 55 41 59 NE9 30.28R  
6HR MIN TEMP: 53; 6HR MAX TEMP: 63;  
 
ANKENY * CLOUDY 52 43 71 NE9 30.28R  
BOONE * CLOUDY 54 45 71 NE10 30.28R  
CHARITON * CLOUDY 50 50 100 NE7 30.23S  
DES MOINES PTCLDY 54 40 59 NE12 30.26R  
6HR MIN TEMP: 54; 6HR MAX TEMP: 66;  
 
GRINNELL* CLOUDY 58 45 62 NE8 30.27S  
KNOXVILLE * CLEAR 54 43 66 NE8 30.24S  
MARSHALLTOWN CLOUDY 52 42 69 NE7 30.27R  
6HR MIN TEMP: 51; 6HR MAX TEMP: 60;  
 
NEWTON * N/A 54 45 71 NE9 30.26R  
PELLA * PTCLDY 51 44 78 N5 30.26S  
PERRY * MOCLDY 52 41 66 NE6 30.28R  

 
 
IAZ004>006-015-016-023>025-035-036-180700-  
NORTH CENTRAL IOWA  
 
CITY SKY/WX TMP DP RH WIND PRES REMARKS
 
ALGONA * CLOUDY 48 41 76 NE7 30.31S  
CLARION * CLOUDY 50 43 76 NE6 30.31R  
ESTHERVILLE CLOUDY 48 39 71 NE7 30.33R  
6HR MIN TEMP: 48; 6HR MAX TEMP: 56;  
 
FORT DODGE * CLOUDY 51 42 71 NE5 30.31R  
MASON CITY PTCLDY 45 39 79 N7 30.33R  
6HR MIN TEMP: 45; 6HR MAX TEMP: 57;  
 
FOREST CITY * FAIR 46 37 71 N6 30.32S  
IOWA FALLS * CLOUDY 53 37 56 NE6 30.31R  

 
 
IAZ007>011-017>019-026>030-037>042-050>054-066-180700-  
NORTHEAST IOWA  
 
CITY SKY/WX TMP DP RH WIND PRES REMARKS
 
CEDAR RAPIDS CLOUDY 54 41 61 NE12G22 30.24R  
6HR MIN TEMP: 54; 6HR MAX TEMP: 63;  
 
CHARLES CITY * CLEAR 46 39 76 N9 30.30S  
CLINTON * PTCLDY 49 46 90 N6 30.24S  
DECORAH * PTCLDY 48 39 71 N8 30.29S  
DUBUQUE CLEAR 50 40 68 N8 30.26S  
6HR MIN TEMP: 49; 6HR MAX TEMP: 59;  
 
MONTICELLO * CLOUDY 52 45 76 CALM 30.26R  
OELWEIN * CLOUDY 50 39 66 N10 30.28S  
WATERLOO CLOUDY 53 38 56 N6 30.28R  
6HR MIN TEMP: 53; 6HR MAX TEMP: 61;  
 

 
 
IAZ064-065-067-068-078-180700-  
EAST CENTRAL IOWA  
 
CITY SKY/WX TMP DP RH WIND PRES REMARKS
 
DAVENPORT CLEAR 53 46 77 N8 30.25R  
6HR MIN TEMP: 53; 6HR MAX TEMP: 63;  
 
IOWA CITY CLEAR 54 43 66 NE7 30.25S  
6HR MIN TEMP: 54; 6HR MAX TEMP: 65;  
 
MT. PLEASANT * CLEAR 54 50 87 N8 30.22S  
MUSCATINE * MOCLDY 54 48 82 NE9 30.24R  
QUAD CITIES CLEAR 57 47 69 VRB5 30.22R  
6HR MIN TEMP: 57; 6HR MAX TEMP: 68;  
 

 
 
IAZ062-063-075>077-085>089-095>099-180700-  
SOUTHEAST IOWA  
 
CITY SKY/WX TMP DP RH WIND PRES REMARKS
 
FAIRFIELD * CLEAR 52 52 100 NE8 30.23S  
FORT MADISON * CLEAR 54 52 94 N3 30.22R  
KEOKUK * CLEAR 59 54 82 N7 30.20S  
OSKALOOSA * FAIR 51 47 84 NE7 30.24S  
OTTUMWA CLEAR 52 47 83 NE6 30.23R  
6HR MIN TEMP: 52; 6HR MAX TEMP: 65;  
 
WASHINGTON * CLEAR 52 48 87 NE8 30.22S  

 
 
ABBREVIATIONS USED IN REMARKS  
TC - TEMPERATURES IN CELSIUS  
WCI - WIND CHILL INDEX  
HX - HEAT INDEX  
VSB - VISIBILITY  

 
 
 
 
CLICK HERE TO GO TO PREVIOUS BULLETINS.

The Nexlab IA Page Main Text Page